1500724801.09,15465,23.5,74440.8,9.09,1.21,0.09,0,*75
1500724802.3,15466,23.5,74440.3,9.09,1.13,0.09,0,*77
1500724803.5,15467,23.5,74442.0,9.09,1.25,0.09,0,*73
1500724804.71,15468,23.5,74438.5,9.09,1.21,0.01,0,*70
1500724805.94,15469,23.5,74442.0,9.11,1.21,0.01,0,*78
1500724807.15,15470,23.5,74442.0,9.09,1.21,0.01,0,*79
1500724808.36,15471,23.5,74440.5,9.09,1.09,-0.03,0,*5D
1500724809.57,15472,23.5,74440.0,9.09,1.13,-0.03,0,*55
1500724810.8,15473,23.5,74442.8,9.05,1.09,-0.07,0,*57
1500724812.01,15474,23.5,74438.5,9.05,0.95,-0.29,0,*58
1500724813.19,15475,23.5,74438.3,9.09,0.97,-0.33,0,*5C
1500724814.4,15476,23.5,74440.0,9.09,0.95,-0.33,0,*5D
1500724815.62,15477,23.5,74442.8,9.09,0.95,-0.23,0,*5D
1500724816.83,15478,23.5,74442.8,9.09,1.01,-0.23,0,*6E
1500724818.04,15479,23.5,74438.8,9.09,0.87,-0.37,0,*55
1500724819.24,15480,23.5,74438.5,9.09,0.83,-0.37,0,*57
1500724820.47,15481,23.5,74436.8,9.05,0.91,-0.49,0,*50
1500724821.68,15482,23.5,74440.5,9.09,0.87,-0.37,0,*51
1500724822.88,15483,23.5,74444.3,9.09,0.95,-0.45,0,*56
1500724824.08,15484,23.5,74442.8,9.09,0.95,-0.37,0,*54
1500724825.29,15485,23.5,74440.0,9.09,0.95,-0.37,0,*55
1500724826.51,15486,23.5,74442.0,9.05,0.83,-0.41,0,*5C
1500724827.7,15487,23.5,74436.0,9.09,0.63,-0.61,0,*5D
1500724828.9,15488,23.5,74438.3,9.09,0.41,-0.77,0,*55
1500724830.09,15489,23.5,74438.8,9.05,0.43,-0.77,0,*5A
1500724831.29,15490,23.5,74440.5,9.09,0.63,-0.57,0,*5E
1500724832.48,15491,23.5,74446.8,9.09,0.51,-0.65,0,*5F
1500724833.7,15492,23.5,74446.3,9.05,0.55,-0.69,0,*58
1500724834.91,15493,23.5,74442.5,9.05,0.67,-0.65,0,*54
1500724836.1,15494,23.5,74440.0,9.09,0.71,-0.61,0,*5C
1500724837.31,15495,23.5,74442.0,9.05,0.59,-0.61,0,*5B
1500724838.51,15496,23.5,74440.0,9.09,0.51,-0.65,0,*58
1500724839.72,15497,23.5,74444.3,9.05,0.47,-0.69,0,*5E
1500724840.93,15498,23.5,74446.0,9.05,0.37,-0.69,0,*56
1500724842.15,15499,23.5,74442.0,9.05,0.33,-0.77,0,*5C
1500724843.36,15500,23.5,74442.5,9.05,0.33,-0.77,0,*5D
1500724844.55,15501,23.5,74444.0,9.09,0.41,-0.61,0,*52
1500724845.73,15502,23.5,74446.5,9.05,0.43,-0.65,0,*5B
1500724846.9,15503,23.5,74446.0,9.09,0.43,-0.65,0,*56
1500724848.11,15504,23.5,74446.0,9.05,0.47,-0.61,0,*5D
1500724849.29,15505,23.5,74444.3,9.05,0.43,-0.65,0,*5C
1500724850.48,15506,23.5,74446.0,9.03,0.41,-0.69,0,*57
1500724851.67,15507,23.5,74442.0,9.03,0.51,-0.57,0,*5A
1500724852.87,15508,23.5,74442.0,9.03,0.63,-0.41,0,*53
1500724854.05,15509,23.5,74444.0,9.03,0.67,-0.33,0,*53
1500724855.21,15510,23.5,74440.3,9.03,0.43,-0.65,0,*5E
1500724856.42,15511,23.5,74442.5,9.03,0.17,-0.85,0,*50
1500724857.61,15512,23.5,74442.5,9.03,0.21,-0.81,0,*52
1500724858.8,15513,23.5,74442.0,9.03,0.33,-0.69,0,*56
1500724859.99,15514,23.5,74440.5,9.03,0.51,-0.57,0,*58
1500724861.17,15515,23.5,74440.8,9.03,0.41,-0.65,0,*59
1500724862.39,15516,23.5,74440.8,9.01,0.41,-0.65,0,*58
1500724863.58,15517,23.5,74442.8,9.03,0.33,-0.69,0,*52
1500724864.76,15518,23.5,74440.0,9.03,0.29,-0.65,0,*5A
1500724865.95,15519,23.5,74442.0,9.03,0.41,-0.57,0,*54
1500724867.17,15520,23.5,74440.8,9.01,0.33,-0.69,0,*54
1500724868.36,15521,23.5,74442.8,9.03,0.41,-0.65,0,*5E
1500724869.54,15522,23.5,74444.3,9.03,0.33,-0.53,0,*5D
1500724870.73,15523,23.5,74444.3,9.03,0.41,-0.65,0,*5C
1500724871.92,15524,23.5,74446.3,9.03,0.51,-0.33,0,*59
1500724873.13,15525,23.5,74442.5,9.03,0.55,-0.41,0,*59
1500724874.31,15526,23.5,74446.8,9.03,0.67,-0.29,0,*55
1500724875.49,15527,23.5,74446.5,9.03,0.67,-0.29,0,*54
1500724876.68,15528,23.5,74446.8,9.03,0.63,-0.29,0,*5F
1500724877.9,15529,23.5,74448.5,9.05,0.71,-0.19,0,*58
1500724879.11,15530,23.5,74446.8,9.05,0.71,-0.37,0,*5C
1500724880.33,15531,23.5,74444.5,9.05,0.59,-0.37,0,*57
1500724881.58,15532,23.5,74448.8,9.05,0.79,-0.27,0,*57
1500724882.8,15533,23.5,74450.8,9.09,0.71,-0.27,0,*52
1500724884.02,15534,23.5,74448.5,9.05,0.55,-0.37,0,*5E
1500724885.23,15535,23.5,74448.3,9.05,0.59,-0.29,0,*5C
1500724886.45,15536,23.5,74448.3,9.05,0.59,-0.37,0,*50
1500724887.67,15537,23.5,74448.0,9.09,0.75,-0.23,0,*56
1500724888.88,15538,23.5,74448.5,9.09,0.83,-0.15,0,*55
1500724890.1,15539,23.5,74448.5,9.09,0.71,-0.27,0,*58
1500724891.32,15540,23.5,74448.3,9.05,0.71,-0.19,0,*57
1500724892.56,15541,23.5,74452.0,9.05,0.79,-0.27,0,*53
1500724893.78,15542,23.5,74448.8,9.09,0.71,-0.27,0,*54
1500724895.03,15543,23.5,74450.5,9.05,0.79,-0.23,0,*55
1500724896.25,15544,23.5,74448.0,9.09,0.75,-0.23,0,*52
1500724897.45,15545,23.5,74446.5,9.09,0.83,-0.03,0,*68
1500724898.65,15546,23.5,74452.3,9.09,0.87,-0.03,0,*6F
1500724899.9,15547,23.5,74450.3,9.11,0.71,-0.23,0,*5C
1500724901.14,15548,23.5,74448.8,9.11,0.63,-0.27,0,*54
1500724902.39,15549,23.5,74454.0,9.11,0.63,-0.27,0,*55
1500724903.61,15550,23.5,74448.5,9.11,0.41,-0.45,0,*59
1500724904.84,15551,23.5,74448.0,9.11,0.47,-0.37,0,*5B
1500724906.04,15552,23.5,74448.8,9.13,0.51,-0.45,0,*58
1500724907.26,15553,23.5,74448.3,9.13,0.47,-0.23,0,*5E
1500724908.49,15554,23.5,74444.5,9.11,0.71,-0.03,0,*6C
1500724909.71,15555,23.5,74446.8,9.11,0.87,0.01,0,*4B
1500724910.9,15556,23.5,74450.0,9.13,0.97,0.13,0,*78
1500724912.13,15557,23.5,74450.8,9.11,0.83,0.09,0,*45
1500724913.32,15558,23.5,74450.5,9.13,0.87,0.05,0,*40
1500724914.52,15559,23.5,74448.8,9.13,0.79,0.05,0,*40
1500724915.74,15560,23.5,74448.3,9.13,0.79,0.29,0,*74
1500724916.97,15561,23.5,74448.3,9.17,0.91,0.25,0,*7B
1500724918.2,15562,23.5,74448.8,9.15,0.83,0.17,0,*78
1500724919.44,15563,23.5,74452.0,9.15,0.79,0.17,0,*7C
1500724920.68,15564,23.5,74448.5,9.15,0.79,0.17,0,*7B
1500724921.9,15565,23.5,74450.3,9.15,0.71,0.09,0,*4D
1500724923.09,15566,23.5,74448.5,9.17,0.71,0.09,0,*4C
1500724924.28,15567,23.5,74452.5,9.17,0.67,0.05,0,*46
1500724925.47,15568,23.5,74448.5,9.17,0.79,0.05,0,*46
1500724926.67,15569,23.5,74452.0,9.17,0.59,0.05,0,*45
1500724927.86,15570,23.5,74448.0,9.17,0.47,-0.07,0,*6D
1500724929.08,15571,23.5,74448.3,9.19,0.41,-0.03,0,*60
1500724930.3,15572,23.5,74450.8,9.19,0.41,-0.11,0,*50
1500724931.5,15573,23.5,74448.5,9.17,0.25,-0.19,0,*55
1500724932.7,15574,23.5,74448.8,9.17,0.37,-0.15,0,*5D
1500724933.87,15575,23.5,74450.3,9.17,0.43,-0.03,0,*68
1500724935.03,15576,23.5,74448.5,9.17,0.43,-0.03,0,*6B
1500724936.22,15577,23.5,74450.0,9.17,0.37,-0.07,0,*6D
1500724937.42,15578,23.5,74448.8,9.17,0.33,-0.19,0,*59
1500724938.64,15579,23.5,74452.8,9.19,0.41,-0.03,0,*68
1500724939.85,15580,23.5,74450.8,9.19,0.37,-0.03,0,*6F
1500724941.08,15581,23.5,74448.5,9.19,0.29,-0.11,0,*52
1500724942.29,15582,23.5,74450.5,9.19,0.37,-0.03,0,*6D
1500724943.5,15583,23.5,74446.3,9.19,0.47,0.01,0,*44
1500724944.72,15584,23.5,74450.0,9.19,0.37,-0.03,0,*6B
1500724945.95,15585,23.5,74452.3,9.19,0.29,-0.11,0,*56
1500724947.17,15586,23.5,74452.5,9.19,0.25,-0.11,0,*59
1500724948.42,15587,23.5,74450.0,9.19,0.21,-0.23,0,*5D
1500724949.63,15588,23.5,74448.8,9.21,0.17,-0.23,0,*5C
1500724950.85,15589,23.5,74448.0,9.21,0.17,-0.23,0,*5D
1500724952.07,15590,23.5,74450.0,9.19,0.25,-0.15,0,*5A
1500724953.29,15591,23.5,74448.0,9.19,0.37,0.09,0,*48
1500724954.5,15592,23.5,74450.0,9.19,0.41,0.09,0,*4A
1500724955.71,15593,23.5,74450.5,9.19,0.37,0.01,0,*42
1500724956.92,15594,23.5,74444.0,9.19,0.37,0.09,0,*4D
1500724958.16,15595,23.5,74446.3,9.19,0.41,0.21,0,*77
1500724959.4,15596,23.5,74446.5,9.19,0.59,0.29,0,*75
1500724960.64,15597,23.5,74444.5,9.19,0.59,0.37,0,*7B
1500724961.88,15598,23.5,74444.5,9.19,0.59,0.29,0,*7B
1500724963.12,15599,23.5,74444.0,9.19,0.71,0.47,0,*78
1500724964.31,15600,23.5,74446.5,9.21,0.67,0.43,0,*73
1500724965.5,15601,23.5,74446.0,9.21,0.63,0.43,0,*76
1500724966.69,15602,23.5,74450.0,9.21,0.63,0.43,0,*75
1500724967.91,15603,23.5,74448.0,9.21,0.63,0.51,0,*77
1500724969.12,15604,23.5,74446.5,9.21,0.75,0.55,0,*73
1500724970.34,15605,23.5,74446.8,9.21,0.67,0.51,0,*75
1500724971.55,15606,23.5,74446.0,9.21,0.75,0.55,0,*71
1500724972.8,15607,23.5,74448.5,9.23,0.79,0.63,0,*7B
1500724974.01,15608,23.5,74446.3,9.25,0.83,0.79,0,*7C
1500724975.22,15609,23.5,74450.8,9.25,0.83,0.67,0,*72
1500724976.47,15610,23.5,74448.8,9.23,0.87,0.67,0,*78
1500724977.71,15611,23.5,74444.5,9.23,0.87,0.63,0,*7D
1500724978.96,15612,23.5,74444.8,9.23,0.87,0.71,0,*7D
1500724980.18,15613,23.5,74444.5,9.23,0.97,0.63,0,*7E
1500724981.43,15614,23.5,74448.5,9.23,0.91,0.59,0,*76
1500724982.65,15615,23.5,74450.3,9.25,0.91,0.47,0,*7E
1500724983.88,15616,23.5,74450.0,9.25,0.91,0.47,0,*7D
1500724985.09,15617,23.5,74444.0,9.25,0.71,0.29,0,*7A
1500724986.31,15618,23.5,74450.3,9.25,0.79,0.37,0,*72
1500724987.51,15619,23.5,74450.8,9.25,0.91,0.43,0,*76
1500724988.76,15620,23.5,74452.0,9.27,0.79,0.37,0,*7B
1500724990.0,15621,23.5,74448.8,9.27,0.83,0.37,0,*7F
1500724991.24,15622,23.5,74450.3,9.27,0.67,0.21,0,*71
1500724992.47,15623,23.5,74450.3,9.27,0.67,0.29,0,*78
1500724993.71,15624,23.5,74450.0,9.27,0.71,0.29,0,*78
1500724994.95,15625,23.5,74452.0,9.27,0.71,0.29,0,*79
1500724996.19,15626,23.5,74452.3,9.27,0.67,0.29,0,*7D
1500724997.43,15627,23.5,74454.5,9.27,0.59,0.29,0,*71
1500724998.67,15628,23.5,74454.8,9.27,0.47,0.21,0,*79
1500724999.91,15629,23.5,74450.3,9.27,0.55,0.29,0,*73
1500725001.13,15630,23.5,74452.8,9.27,0.43,0.21,0,*74
1500725002.34,15631,23.5,74450.8,9.27,0.37,0.09,0,*4C
1500725003.55,15632,23.5,74452.3,9.27,0.33,0.09,0,*4B
1500725004.78,15633,23.5,74454.5,9.27,0.37,0.17,0,*71
1500725006.01,15634,23.5,74454.5,9.27,0.37,0.17,0,*76
1500725007.22,15635,23.5,74452.0,9.27,0.43,0.29,0,*79
1500725008.46,15636,23.5,74450.5,9.27,0.37,0.29,0,*79
1500725009.69,15637,23.5,74452.8,9.27,0.37,0.17,0,*75
1500725010.9,15638,23.5,74450.3,9.27,0.33,0.09,0,*41
1500725012.14,15639,23.5,74452.0,9.27,0.37,0.17,0,*7B
1500725013.34,15640,23.5,74448.0,9.27,0.43,0.29,0,*7B
1500725014.58,15641,23.5,74450.3,9.27,0.37,0.29,0,*79
1500725015.8,15642,23.5,74450.3,9.25,0.29,0.21,0,*7F
1500725017.03,15643,23.44,74450.0,9.27,0.33,0.17,0,*72
1500725018.27,15644,23.5,74452.8,9.27,0.37,0.37,0,*73
1500725019.42,15645,23.5,74454.5,9.25,0.43,0.43,0,*70
1500725020.67,15646,23.5,74454.5,9.27,0.55,0.47,0,*72
1500725021.91,15647,23.5,74452.0,9.31,0.59,0.59,0,*77
1500725023.15,15648,23.5,74450.0,9.27,0.67,0.55,0,*7E
1500725024.38,15649,23.5,74450.8,9.31,0.59,0.59,0,*79
1500725025.63,15650,23.5,74452.5,9.31,0.51,0.59,0,*79
1500725026.86,15651,23.5,74454.0,9.31,0.59,0.59,0,*70
1500725028.11,15652,23.5,74452.8,9.27,0.47,0.47,0,*74
1500725029.35,15653,23.5,74452.8,9.31,0.51,0.47,0,*75
1500725030.56,15654,23.5,74454.8,9.27,0.43,0.47,0,*76
1500725031.79,15655,23.5,74452.8,9.31,0.59,0.63,0,*7D
1500725033.03,15656,23.5,74456.0,9.31,0.51,0.59,0,*7F
1500725034.27,15657,23.5,74454.8,9.31,0.59,0.63,0,*7F
1500725035.5,15658,23.5,74456.5,9.31,0.59,0.63,0,*70
1500725036.73,15659,23.5,74456.0,9.31,0.63,0.71,0,*7B
1500725037.97,15660,23.5,74458.0,9.31,0.59,0.71,0,*78
1500725039.2,15661,23.5,74456.0,9.31,0.59,0.71,0,*79
1500725040.44,15662,23.5,74456.3,9.31,0.51,0.63,0,*71
1500725041.65,15663,23.5,74454.3,9.33,0.51,0.67,0,*76
1500725042.88,15664,23.5,74456.3,9.35,0.63,0.79,0,*79
1500725044.06,15665,23.5,74454.8,9.33,0.43,0.63,0,*77
1500725045.3,15666,23.5,74456.3,9.35,0.37,0.55,0,*74
1500725046.51,15667,23.5,74454.5,9.33,0.29,0.51,0,*78
1500725047.73,15668,23.5,74458.0,9.33,0.25,0.37,0,*7B
1500725048.92,15669,23.5,74456.8,9.33,0.29,0.43,0,*75
1500725050.13,15670,23.5,74458.0,9.33,0.25,0.55,0,*76
1500725051.35,15671,23.5,74456.8,9.33,0.25,0.51,0,*73
1500725052.55,15672,23.5,74454.8,9.33,0.37,0.67,0,*76
1500725053.76,15673,23.5,74454.5,9.33,0.37,0.87,0,*79
1500725055.0,15674,23.5,74452.8,9.31,0.33,0.83,0,*7C
1500725056.21,15675,23.5,74454.3,9.31,0.37,1.05,0,*46
1500725057.42,15676,23.5,74452.5,9.33,0.41,1.13,0,*41
1500725058.66,15677,23.5,74452.0,9.35,0.37,1.13,0,*47
1500725059.84,15678,23.44,74452.3,9.33,0.43,1.29,0,*44
1500725061.0,15679,23.5,74454.3,9.33,0.43,1.41,0,*4B
1500725062.18,15680,23.5,74456.8,9.33,0.43,1.51,0,*4C
1500725063.39,15681,23.5,74452.8,9.33,0.51,1.59,0,*46
1500725064.58,15682,23.5,74452.8,9.33,0.67,1.75,0,*4E
1500725065.78,15683,23.5,74456.8,9.33,0.79,1.83,0,*49
1500725066.99,15684,23.5,74456.0,9.35,0.75,1.83,0,*44
1500725068.22,15685,23.5,74456.0,9.35,0.79,1.83,0,*49
1500725069.42,15686,23.5,74454.3,9.33,1.01,1.85,0,*74
1500725070.68,15687,23.5,74456.0,9.35,1.09,1.85,0,*7B
1500725071.93,15688,23.5,74452.8,9.35,1.21,1.93,0,*79
1500725073.19,15689,23.5,74458.0,9.35,1.21,1.93,0,*78
1500725074.44,15690,23.5,74456.0,9.35,1.21,2.01,0,*78
1500725075.7,15691,23.5,74458.8,9.35,1.21,2.01,0,*79
1500725076.92,15692,23.5,74456.5,9.37,1.25,2.01,0,*7C
1500725078.15,15693,23.5,74456.3,9.37,1.25,2.13,0,*7E
1500725079.4,15694,23.5,74452.5,9.39,1.29,2.05,0,*7C
1500725080.63,15695,23.5,74456.5,9.37,1.17,2.01,0,*7A
1500725081.88,15696,23.5,74458.8,9.39,1.25,2.13,0,*75
1500725083.11,15697,23.5,74456.0,9.37,1.25,2.13,0,*7A
1500725084.34,15698,23.5,74456.5,9.37,1.25,2.05,0,*72
1500725085.56,15699,23.5,74456.8,9.37,1.25,2.17,0,*70
1500725086.79,15700,23.5,74456.0,9.37,1.17,2.25,0,*71
1500725088.03,15701,23.5,74454.5,9.37,1.13,2.17,0,*75
1500725089.25,15702,23.5,74456.8,9.39,1.05,2.13,0,*7B
1500725090.5,15703,23.5,74454.3,9.39,1.17,2.25,0,*7C
1500725091.7,15704,23.5,74456.3,9.39,1.05,2.27,0,*7A
1500725092.87,15705,23.5,74454.8,9.37,1.01,2.27,0,*71
1500725094.11,15706,23.5,74458.0,9.39,0.95,2.39,0,*4F
1500725095.33,15707,23.5,74454.5,9.39,1.01,2.47,0,*7B
1500725096.53,15708,23.5,74454.5,9.37,1.05,2.59,0,*71
1500725097.79,15709,23.5,74458.3,9.39,1.13,2.73,0,*71
1500725099.05,15710,23.5,74456.8,9.39,1.13,2.89,0,*7C
1500725100.27,15711,23.5,74452.5,9.39,1.05,2.85,0,*76
1500725101.46,15712,23.5,74454.3,9.39,1.05,2.99,0,*78
1500725102.67,15713,23.5,74454.3,9.41,1.05,2.99,0,*76
1500725103.88,15714,23.5,74454.3,9.43,1.09,2.95,0,*73
1500725105.14,15715,23.5,74456.8,9.41,1.09,3.03,0,*7E
1500725106.4,15716,23.5,74458.8,9.39,1.17,3.07,0,*79
1500725107.64,15717,23.5,74454.0,9.39,1.43,3.23,0,*7F
1500725108.89,15718,23.5,74454.3,9.39,1.63,3.41,0,*76
1500725110.11,15719,23.5,74452.5,9.39,1.67,3.29,0,*7D
1500725111.31,15720,23.5,74452.8,9.39,1.79,3.29,0,*78
1500725112.56,15721,23.5,74452.8,9.39,1.85,3.33,0,*71
1500725113.81,15722,23.5,74450.8,9.39,2.01,3.41,0,*78
1500725115.06,15723,23.5,74452.5,9.39,2.01,3.45,0,*7D
1500725116.31,15724,23.5,74454.5,9.39,2.05,3.53,0,*79
1500725117.56,15725,23.5,74454.8,9.39,1.97,3.33,0,*76
1500725118.8,15726,23.5,74454.5,9.39,1.89,3.45,0,*7B
1500725120.05,15727,23.5,74454.3,9.39,2.05,3.79,0,*72
1500725121.29,15728,23.5,74454.3,9.39,2.05,3.79,0,*7D
1500725122.53,15729,23.5,74452.0,9.39,1.89,3.71,0,*73
1500725123.78,15730,23.5,74454.3,9.39,2.01,4.01,0,*78
1500725125.03,15731,23.5,74454.8,9.39,1.97,4.05,0,*71
1500725126.25,15732,23.5,74450.8,9.39,2.01,4.23,0,*7A
1500725127.45,15733,23.5,74454.5,9.37,2.13,4.41,0,*72
1500725128.67,15734,23.5,74454.5,9.39,1.97,4.49,0,*7C
1500725129.89,15735,23.5,74452.0,9.37,2.13,4.59,0,*7D
1500725131.12,15736,23.5,74454.8,9.37,2.25,4.75,0,*75
1500725132.35,15737,23.5,74454.3,9.39,2.51,5.11,0,*7A
1500725133.56,15738,23.5,74452.8,9.37,2.59,5.19,0,*7B
1500725134.78,15739,23.5,74454.8,9.39,2.77,5.41,0,*75
1500725135.99,15740,23.5,74454.5,9.39,2.89,5.45,0,*7E
1500725137.22,15741,23.5,74452.0,9.39,2.99,5.55,0,*7F
1500725138.42,15742,23.5,74458.0,9.37,3.11,5.63,0,*76
1500725139.63,15743,23.5,74456.0,9.37,3.33,5.73,0,*76
1500725140.85,15744,23.5,74454.5,9.39,3.59,5.89,0,*76
1500725142.07,15745,23.5,74452.0,9.37,3.71,5.77,0,*72
1500725143.27,15746,23.5,74458.0,9.37,3.89,5.81,0,*7F
1500725144.47,15747,23.44,74452.8,9.37,3.93,5.73,0,*78
1500725145.71,15748,23.5,74454.3,9.35,3.97,5.73,0,*71
1500725146.91,15749,23.44,74454.5,9.37,4.23,5.77,0,*7E
1500725148.14,15750,23.44,74452.0,9.37,4.05,5.55,0,*72
1500725149.36,15751,23.5,74454.3,9.37,4.31,5.77,0,*74
1500725150.56,15752,23.5,74456.5,9.37,4.37,5.77,0,*71
1500725151.78,15753,23.5,74454.0,9.35,4.45,5.85,0,*7A
1500725152.96,15754,23.5,74452.5,9.33,4.57,5.99,0,*75
1500725154.19,15755,23.5,74452.0,9.35,4.59,5.99,0,*7C
1500725155.4,15756,23.5,74454.5,9.35,4.81,6.17,0,*7F
1500725156.61,15757,23.5,74456.3,9.33,5.01,6.21,0,*74
1500725157.81,15758,23.5,74454.5,9.35,5.19,6.29,0,*7C
1500725158.98,15759,23.5,74454.5,9.33,5.37,6.21,0,*7F
1500725160.17,15760,23.5,74452.8,9.35,5.49,6.21,0,*7A
1500725161.37,15761,23.5,74454.8,9.33,5.63,6.17,0,*70
1500725162.57,15762,23.5,74456.0,9.37,5.73,6.11,0,*70
1500725163.78,15763,23.5,74458.5,9.37,5.55,5.81,0,*7F
1500725164.99,15764,23.5,74456.8,9.37,5.51,5.73,0,*71
1500725166.19,15765,23.5,74456.3,9.37,5.45,5.55,0,*71
1500725167.41,15766,23.5,74456.0,9.35,5.41,5.51,0,*70
1500725168.6,15767,23.44,74454.8,9.35,5.37,5.37,0,*70
1500725169.82,15768,23.5,74456.5,9.35,5.27,5.37,0,*7E
1500725171.02,15769,23.5,74458.0,9.35,5.19,5.37,0,*72
1500725172.22,15770,23.5,74456.0,9.35,4.89,5.29,0,*7D
1500725173.44,15771,23.5,74458.5,9.35,4.79,5.29,0,*73
1500725174.67,15772,23.5,74454.5,9.35,4.71,5.41,0,*76
1500725175.89,15773,23.5,74452.0,9.35,4.67,5.37,0,*71
1500725177.09,15774,23.5,74452.5,9.35,4.45,5.37,0,*76
1500725178.29,15775,23.5,74454.0,9.35,4.23,5.29,0,*78
1500725179.49,15776,23.44,74452.5,9.35,4.27,5.29,0,*7F
1500725180.66,15777,23.5,74452.5,9.37,4.37,5.41,0,*73
1500725181.86,15778,23.5,74452.5,9.37,4.31,5.41,0,*7A
1500725183.06,15779,23.5,74452.3,9.37,4.31,5.45,0,*7F
1500725184.26,15780,23.5,74452.3,9.37,4.41,5.51,0,*7B
1500725185.46,15781,23.5,74454.5,9.37,4.41,5.55,0,*7E
1500725186.63,15782,23.5,74456.0,9.37,4.37,5.41,0,*79
1500725187.8,15783,23.5,74452.5,9.37,4.23,5.41,0,*7D
1500725189.01,15784,23.5,74452.3,9.37,4.05,5.41,0,*7E
1500725190.21,15785,23.44,74450.8,9.37,3.89,5.51,0,*7D
1500725191.41,15786,23.5,74454.8,9.37,3.89,5.73,0,*7E
1500725192.6,15787,23.44,74452.3,9.37,3.89,5.89,0,*7A
1500725193.83,15788,23.5,74452.0,9.39,4.01,5.99,0,*7D
1500725195.03,15789,23.5,74452.5,9.37,4.01,6.03,0,*72
1500725196.22,15790,23.5,74454.8,9.39,4.23,6.21,0,*74
1500725197.46,15791,23.5,74454.0,9.39,4.59,6.69,0,*74
1500725198.66,15792,23.5,74454.0,9.37,4.93,6.79,0,*7E
1500725199.85,15793,23.5,74454.0,9.41,5.23,7.05,0,*7E
1500725201.04,15794,23.5,74452.8,9.39,5.41,7.01,0,*76
1500725202.24,15795,23.5,74454.3,9.41,5.59,6.97,0,*7F
1500725203.44,15796,23.44,74450.8,9.37,5.99,7.15,0,*7A
1500725204.65,15797,23.44,74448.5,9.39,6.25,7.29,0,*7E
1500725205.89,15798,23.5,74452.5,9.39,6.35,7.29,0,*70
1500725207.11,15799,23.44,74450.8,9.37,6.47,7.27,0,*74
1500725208.33,15800,23.5,74454.3,9.39,6.69,7.37,0,*78
1500725209.56,15801,23.5,74454.5,9.39,6.73,7.37,0,*72
1500725210.78,15802,23.5,74452.8,9.39,6.79,7.27,0,*7A
1500725211.98,15803,23.44,74450.8,9.39,6.93,7.29,0,*71
1500725213.2,15804,23.5,74452.8,9.39,6.93,7.15,0,*79
1500725214.42,15805,23.5,74454.0,9.39,7.11,7.05,0,*72
1500725215.65,15806,23.5,74454.8,9.41,7.09,6.87,0,*7C
1500725216.86,15807,23.5,74452.5,9.39,7.11,6.79,0,*7A
1500725218.1,15808,23.5,74452.0,9.39,7.11,6.69,0,*74
1500725219.34,15809,23.5,74452.5,9.39,7.15,6.61,0,*79
1500725220.56,15810,23.5,74454.8,9.39,7.01,6.35,0,*75
1500725221.77,15811,23.5,74456.3,9.41,6.97,6.07,0,*74
1500725222.99,15812,23.5,74454.8,9.41,6.83,5.85,0,*7B
1500725224.2,15813,23.44,74452.8,9.43,6.57,5.49,0,*71
1500725225.44,15814,23.5,74454.5,9.39,6.43,5.19,0,*7B
1500725226.68,15815,23.5,74454.0,9.41,6.25,5.01,0,*7C
1500725227.94,15816,23.5,74456.8,9.41,5.85,4.67,0,*77
1500725229.14,15817,23.44,74452.5,9.41,5.45,4.41,0,*7E
1500725230.36,15818,23.44,74452.0,9.41,5.27,4.33,0,*70
1500725231.57,15819,23.5,74458.3,9.41,5.15,4.33,0,*70
1500725232.79,15820,23.5,74452.8,9.39,4.85,4.05,0,*78
1500725234.0,15821,23.44,74454.3,9.39,4.49,3.79,0,*75
1500725235.21,15822,23.5,74452.3,9.41,4.33,3.81,0,*73
1500725236.45,15823,23.44,74454.8,9.41,4.31,3.93,0,*73
1500725237.65,15824,23.44,74454.5,9.39,4.11,3.89,0,*72
1500725238.85,15825,23.5,74454.5,9.39,4.11,3.89,0,*73
1500725240.1,15826,23.44,74454.3,9.39,4.05,4.05,0,*76
1500725241.3,15827,23.5,74456.0,9.39,4.15,4.15,0,*77
1500725242.52,15828,23.5,74454.3,9.39,4.15,4.31,0,*7E
1500725243.72,15829,23.5,74454.8,9.39,4.11,4.27,0,*7C
1500725244.94,15830,23.44,74452.8,9.39,4.05,4.15,0,*70
1500725246.11,15831,23.5,74456.3,9.37,4.11,4.23,0,*7F
1500725247.33,15832,23.5,74454.8,9.39,4.31,4.27,0,*74
1500725248.53,15833,23.5,74452.5,9.37,4.31,4.11,0,*7E
1500725249.78,15834,23.5,74454.3,9.39,4.31,3.79,0,*7E
1500725251.0,15835,23.5,74454.3,9.39,4.05,3.59,0,*7A
1500725252.2,15836,23.5,74454.3,9.37,3.93,3.53,0,*75
1500725253.44,15837,23.44,74454.8,9.39,3.71,3.19,0,*78
1500725254.68,15838,23.5,74456.5,9.39,3.33,3.07,0,*7E
1500725255.9,15839,23.5,74458.0,9.37,3.33,3.19,0,*7E
1500725257.13,15840,23.44,74454.5,9.39,3.29,2.89,0,*7D
1500725258.37,15841,23.5,74456.3,9.39,2.77,2.69,0,*78
1500725259.61,15842,23.5,74456.5,9.39,2.39,2.39,0,*74
1500725260.84,15843,23.44,74454.3,9.39,2.27,2.25,0,*77
1500725262.06,15844,23.5,74452.8,9.37,2.05,2.13,0,*7B
1500725263.3,15845,23.5,74452.3,9.39,1.89,1.97,0,*7C
1500725264.52,15846,23.44,74448.8,9.37,1.85,2.01,0,*71
1500725265.75,15847,23.5,74452.0,9.39,1.79,2.01,0,*7D
1500725266.97,15848,23.5,74454.0,9.37,1.55,1.97,0,*7E
1500725268.16,15849,23.5,74454.0,9.37,1.41,1.89,0,*75
1500725269.4,15850,23.44,74454.5,9.39,1.51,2.13,0,*72
1500725270.63,15851,23.5,74452.8,9.37,1.55,2.17,0,*7D
1500725271.81,15852,23.5,74456.5,9.37,1.75,2.35,0,*7C
1500725273.01,15853,23.44,74452.5,9.37,1.41,2.17,0,*7A
1500725274.23,15854,23.44,74452.3,9.37,1.29,1.97,0,*78
1500725275.45,15855,23.5,74456.0,9.37,1.25,1.97,0,*75
1500725276.7,15856,23.5,74452.0,9.39,1.25,2.13,0,*77
1500725277.93,15857,23.5,74454.5,9.37,1.17,2.05,0,*7E
1500725279.16,15858,23.5,74452.3,9.37,1.25,2.05,0,*70
1500725280.39,15859,23.5,74454.3,9.37,1.17,2.05,0,*70
1500725281.64,15860,23.5,74454.0,9.39,1.33,2.25,0,*70
1500725282.84,15861,23.44,74452.5,9.37,1.29,2.27,0,*76
1500725284.03,15862,23.44,74454.0,9.37,1.05,1.89,0,*7C
1500725285.24,15863,23.5,74452.8,9.37,1.01,1.85,0,*75
1500725286.43,15864,23.5,74452.8,9.37,0.79,1.75,0,*43
1500725287.63,15865,23.44,74448.5,9.37,0.79,1.79,0,*4E
1500725288.85,15866,23.44,74452.8,9.35,0.79,1.75,0,*43
1500725290.06,15867,23.5,74452.5,9.35,0.67,1.75,0,*4D
1500725291.3,15868,23.5,74448.5,9.35,0.79,1.71,0,*49
1500725292.5,15869,23.5,74448.5,9.33,0.79,1.75,0,*4A
1500725293.72,15870,23.44,74440.8,9.33,0.79,1.71,0,*46
1500725294.93,15871,23.44,74444.0,9.33,0.55,1.47,0,*4C
1500725296.12,15872,23.5,74448.3,9.33,0.55,1.41,0,*49
1500725297.34,15873,23.44,74444.5,9.33,0.87,1.63,0,*47
1500725298.55,15874,23.5,74446.0,9.33,0.75,1.63,0,*4D
1500725299.79,15875,23.44,74444.5,9.31,0.59,1.43,0,*42
1500725301.02,15876,23.44,74442.8,9.31,0.59,1.47,0,*45
1500725302.25,15877,23.44,74444.5,9.31,0.63,1.47,0,*4D
1500725303.45,15878,23.5,74448.0,9.31,0.97,1.83,0,*41
1500725304.68,15879,23.5,74448.5,9.27,0.91,1.79,0,*44
1500725305.93,15880,23.5,74448.5,9.27,1.13,1.89,0,*76
1500725307.19,15881,23.44,74448.5,9.31,1.25,2.09,0,*7E
1500725308.39,15882,23.44,74448.5,9.27,1.01,1.79,0,*78
1500725309.62,15883,23.5,74450.3,9.31,1.09,1.79,0,*76
1500725310.83,15884,23.5,74448.8,9.27,1.05,1.79,0,*7A
1500725312.09,15885,23.44,74450.3,9.27,1.21,2.01,0,*71
1500725313.35,15886,23.5,74454.3,9.27,1.33,2.13,0,*72
1500725314.61,15887,23.44,74450.5,9.31,1.33,2.05,0,*73
1500725315.87,15888,23.44,74448.3,9.31,1.33,2.05,0,*7C
1500725317.13,15889,23.44,74452.0,9.31,1.37,2.09,0,*75
1500725318.36,15890,23.44,74452.3,9.31,1.09,1.79,0,*74
1500725319.6,15891,23.44,74452.3,9.31,0.87,1.59,0,*40
1500725320.85,15892,23.44,74448.8,9.27,1.13,1.89,0,*75
1500725322.1,15893,23.5,74454.0,9.31,1.25,1.97,0,*79
1500725323.35,15894,23.5,74454.5,9.31,1.37,2.05,0,*75
1500725324.56,15895,23.5,74454.3,9.33,1.41,2.09,0,*7B
1500725325.79,15896,23.44,74450.0,9.33,1.37,2.09,0,*79
1500725327.02,15897,23.5,74454.5,9.33,1.29,2.09,0,*77
1500725328.26,15898,23.5,74450.3,9.33,1.29,2.09,0,*78
1500725329.49,15899,23.44,74450.3,9.33,1.37,2.09,0,*76
1500725330.69,15900,23.5,74452.5,9.33,1.41,2.25,0,*78
1500725331.89,15901,23.44,74448.5,9.33,1.41,2.25,0,*79
1500725333.12,15902,23.44,74448.5,9.33,1.47,2.25,0,*7C
1500725334.35,15903,23.44,74450.8,9.33,1.29,2.13,0,*70
1500725335.58,15904,23.44,74452.5,9.33,1.29,2.21,0,*76
1500725336.81,15905,23.44,74454.3,9.33,1.29,2.21,0,*77
1500725338.02,15906,23.44,74452.5,9.33,1.37,2.31,0,*7A